• In Russia
  • List of Countries
  • For 7 days
  • Water Temperature
  • Satellite Maps
  • Weather Map
  • Weather Widgets
  • user-avatar
    Login

    Hourly Weather Santa Fe

    Today, 23 October, Monday

    Time Temperature Precipitation Wind Pressure Humidity
    00:00 +11°C° 0 mm 3 mps 764 mmHg 66%
    01:00 +10°C° 0 mm 3 mps 763 mmHg 69%
    02:00 +10°C° 0 mm 3 mps 763 mmHg 73%
    03:00 +10°C° 0 mm 3 mps 763 mmHg 74%
    04:00 +10°C° 0 mm 3 mps 763 mmHg 75%
    05:00 +10°C° 0 mm 3 mps 763 mmHg 77%
    06:00 +11°C° 0 mm 4 mps 763 mmHg 71%
    07:00 +13°C° 0 mm 4 mps 763 mmHg 65%
    08:00 +15°C° 0 mm 5 mps 763 mmHg 59%
    09:00 +17°C° 0 mm 5 mps 763 mmHg 53%
    10:00 +20°C° 0 mm 5 mps 763 mmHg 47%
    11:00 +23°C° 0 mm 5 mps 762 mmHg 41%
    12:00 +23°C° 0 mm 4 mps 761 mmHg 39%
    13:00 +25°C° 0 mm 4 mps 761 mmHg 36%
    14:00 +26°C° 0 mm 4 mps 760 mmHg 34%
    15:00 +26°C° 0 mm 4 mps 759 mmHg 37%
    16:00 +25°C° 0 mm 4 mps 759 mmHg 40%
    17:00 +25°C° 0 mm 4 mps 758 mmHg 43%
    18:00 +21°C° 0 mm 4 mps 758 mmHg 50%
    19:00 +19°C° 0 mm 4 mps 759 mmHg 56%
    20:00 +17°C° 0 mm 4 mps 759 mmHg 63%
    21:00 +17°C° 0 mm 3 mps 759 mmHg 67%
    22:00 +16°C° 0 mm 3 mps 759 mmHg 71%
    23:00 +14°C° 0 mm 3 mps 759 mmHg 75%

    Tomorrow, 24 October, Tuesday

    Time Temperature Precipitation Wind Pressure Humidity
    00:00 +14°C° 0 mm 3 mps 759 mmHg 77%
    01:00 +13°C° 0 mm 3 mps 759 mmHg 79%
    02:00 +13°C° 0 mm 3 mps 758 mmHg 81%
    03:00 +12°C° 0 mm 3 mps 758 mmHg 83%
    04:00 +12°C° 0 mm 3 mps 758 mmHg 84%
    05:00 +12°C° 0 mm 3 mps 758 mmHg 86%
    06:00 +14°C° 0 mm 3 mps 759 mmHg 78%
    07:00 +17°C° 0 mm 4 mps 759 mmHg 71%
    08:00 +19°C° 0 mm 4 mps 759 mmHg 63%
    09:00 +21°C° 0 mm 4 mps 759 mmHg 55%
    10:00 +25°C° 0 mm 3 mps 759 mmHg 48%
    11:00 +27°C° 0 mm 3 mps 759 mmHg 40%
    12:00 +28°C° 0 mm 3 mps 759 mmHg 37%
    13:00 +29°C° 0 mm 3 mps 758 mmHg 35%
    14:00 +30°C° 0 mm 3 mps 757 mmHg 32%
    15:00 +29°C° 0 mm 3 mps 757 mmHg 36%
    16:00 +29°C° 0 mm 3 mps 757 mmHg 39%
    17:00 +28°C° 0 mm 3 mps 756 mmHg 43%
    18:00 +26°C° 0 mm 3 mps 757 mmHg 50%
    19:00 +24°C° 0 mm 3 mps 757 mmHg 57%
    20:00 +21°C° 0 mm 3 mps 757 mmHg 64%
    21:00 +20°C° 0 mm 3 mps 758 mmHg 68%
    22:00 +19°C° 0 mm 3 mps 758 mmHg 72%
    23:00 +18°C° 0 mm 3 mps 758 mmHg 75%

    Day after tomorrow, 25 October, Wednesday

    Time Temperature Precipitation Wind Pressure Humidity
    00:00 +18°C° 0 mm 2 mps 758 mmHg 78%
    01:00 +17°C° 0 mm 2 mps 758 mmHg 80%
    02:00 +17°C° 0 mm 2 mps 757 mmHg 83%
    03:00 +16°C° 0 mm 2 mps 757 mmHg 85%
    04:00 +16°C° 0 mm 2 mps 757 mmHg 87%
    05:00 +16°C° 0 mm 2 mps 757 mmHg 90%
    06:00 +18°C° 0 mm 2 mps 757 mmHg 82%
    07:00 +20°C° 0 mm 2 mps 758 mmHg 75%
    08:00 +23°C° 0 mm 2 mps 758 mmHg 68%
    09:00 +25°C° 0 mm 2 mps 758 mmHg 61%
    10:00 +27°C° 0 mm 2 mps 757 mmHg 53%
    11:00 +29°C° 0 mm 2 mps 757 mmHg 46%
    12:00 +30°C° 0 mm 2 mps 756 mmHg 43%
    13:00 +31°C° 0 mm 2 mps 756 mmHg 40%
    14:00 +32°C° 0 mm 2 mps 755 mmHg 37%
    15:00 +31°C° 0 mm 2 mps 755 mmHg 40%
    16:00 +31°C° 0 mm 2 mps 754 mmHg 42%
    17:00 +30°C° 0 mm 2 mps 754 mmHg 45%
    18:00 +28°C° 0 mm 2 mps 754 mmHg 51%
    19:00 +26°C° 0 mm 3 mps 755 mmHg 57%
    20:00 +24°C° 0 mm 3 mps 755 mmHg 64%
    21:00 +22°C° 0 mm 3 mps 755 mmHg 67%
    22:00 +21°C° 0 mm 3 mps 755 mmHg 71%
    23:00 +21°C° 0 mm 3 mps 755 mmHg 75%

    26 October, Thursday

    Time Temperature Precipitation Wind Pressure Humidity
    00:00 +20°C° 0 mm 2 mps 755 mmHg 79%
    01:00 +19°C° 0 mm 2 mps 755 mmHg 83%
    02:00 +20°C° 0 mm 1 mps 755 mmHg 87%
    03:00 +20°C° 0 mm 1 mps 755 mmHg 88%
    04:00 +18°C° 0 mm 2 mps 755 mmHg 90%
    05:00 +18°C° 0 mm 2 mps 756 mmHg 91%
    06:00 +21°C° 0 mm 2 mps 756 mmHg 83%
    07:00 +24°C° 0 mm 2 mps 756 mmHg 75%
    08:00 +26°C° 0 mm 2 mps 756 mmHg 68%
    09:00 +28°C° 0 mm 2 mps 756 mmHg 59%
    10:00 +30°C° 0 mm 2 mps 756 mmHg 51%
    11:00 +33°C° 0 mm 3 mps 755 mmHg 42%
    12:00 +33°C° 0 mm 3 mps 755 mmHg 40%
    13:00 +34°C° 0 mm 3 mps 754 mmHg 37%
    14:00 +35°C° 0 mm 3 mps 754 mmHg 35%
    15:00 +34°C° 0 mm 3 mps 753 mmHg 38%
    16:00 +33°C° 0 mm 3 mps 753 mmHg 42%
    17:00 +33°C° 0 mm 4 mps 753 mmHg 46%
    18:00 +30°C° 0 mm 4 mps 753 mmHg 53%
    19:00 +28°C° 0 mm 4 mps 753 mmHg 59%
    20:00 +26°C° 0 mm 4 mps 753 mmHg 66%
    21:00 +26°C° 0 mm 4 mps 753 mmHg 71%
    22:00 +25°C° 0 mm 4 mps 753 mmHg 75%
    23:00 +23°C° 0 mm 4 mps 753 mmHg 79%

    27 October, Friday

    Time Temperature Precipitation Wind Pressure Humidity
    00:00 +23°C° 2.4 mm 4 mps 753 mmHg 83%
    01:00 +22°C° 2.4 mm 4 mps 753 mmHg 88%
    02:00 +21°C° 2.4 mm 4 mps 753 mmHg 93%
    03:00 +21°C° 1.5 mm 4 mps 754 mmHg 91%
    04:00 +20°C° 1.5 mm 4 mps 754 mmHg 89%
    05:00 +20°C° 1.5 mm 4 mps 754 mmHg 88%
    06:00 +21°C° 0 mm 4 mps 755 mmHg 84%
    07:00 +21°C° 0 mm 5 mps 755 mmHg 81%
    08:00 +22°C° 0 mm 5 mps 756 mmHg 78%
    09:00 +23°C° 0 mm 5 mps 756 mmHg 72%
    10:00 +24°C° 0 mm 6 mps 756 mmHg 66%
    11:00 +27°C° 0 mm 6 mps 756 mmHg 59%
    12:00 +28°C° 0 mm 6 mps 756 mmHg 54%
    13:00 +29°C° 0 mm 6 mps 755 mmHg 49%
    14:00 +30°C° 0 mm 6 mps 755 mmHg 43%
    15:00 +29°C° 0 mm 5 mps 755 mmHg 45%
    16:00 +28°C° 0 mm 5 mps 754 mmHg 47%
    17:00 +28°C° 0 mm 4 mps 754 mmHg 49%
    18:00 +26°C° 0 mm 4 mps 754 mmHg 57%
    19:00 +22°C° 0 mm 4 mps 755 mmHg 65%
    20:00 +20°C° 0 mm 3 mps 755 mmHg 73%
    21:00 +19°C° 0 mm 3 mps 755 mmHg 78%
    22:00 +18°C° 0 mm 3 mps 755 mmHg 83%
    23:00 +18°C° 0 mm 3 mps 755 mmHg 88%

    28 October, Saturday

    Time Temperature Precipitation Wind Pressure Humidity
    00:00 +17°C° 0 mm 2 mps 755 mmHg 91%
    01:00 +16°C° 0 mm 2 mps 755 mmHg 93%
    02:00 +16°C° 0 mm 2 mps 755 mmHg 96%
    03:00 +15°C° 0 mm 2 mps 754 mmHg 96%
    04:00 +15°C° 0 mm 2 mps 754 mmHg 96%
    05:00 +14°C° 0 mm 2 mps 754 mmHg 97%
    06:00 +16°C° 0 mm 2 mps 754 mmHg 87%
    07:00 +18°C° 0 mm 2 mps 754 mmHg 78%
    08:00 +20°C° 0 mm 3 mps 755 mmHg 68%
    09:00 +22°C° 0 mm 3 mps 754 mmHg 59%
    10:00 +25°C° 0 mm 3 mps 754 mmHg 51%
    11:00 +27°C° 0 mm 3 mps 754 mmHg 42%
    12:00 +28°C° 0 mm 3 mps 753 mmHg 39%
    13:00 +29°C° 0 mm 3 mps 752 mmHg 37%
    14:00 +30°C° 0 mm 3 mps 751 mmHg 35%
    15:00 +29°C° 0 mm 4 mps 751 mmHg 40%
    16:00 +28°C° 0 mm 4 mps 751 mmHg 44%
    17:00 +28°C° 0 mm 4 mps 751 mmHg 49%
    18:00 +26°C° 0 mm 5 mps 751 mmHg 58%
    19:00 +23°C° 0 mm 5 mps 751 mmHg 68%
    20:00 +21°C° 0 mm 5 mps 751 mmHg 77%
    21:00 +20°C° 0 mm 4 mps 751 mmHg 82%
    22:00 +19°C° 0 mm 3 mps 752 mmHg 86%
    23:00 +18°C° 0 mm 2 mps 752 mmHg 90%

    29 October, Sunday

    Time Temperature Precipitation Wind Pressure Humidity
    00:00 +17°C° 0 mm 2 mps 752 mmHg 92%
    01:00 +17°C° 0 mm 2 mps 752 mmHg 93%
    02:00 +17°C° 0 mm 3 mps 752 mmHg 95%
    03:00 +17°C° 0 mm 2 mps 752 mmHg 96%
    04:00 +17°C° 0 mm 2 mps 753 mmHg 96%
    05:00 +16°C° 0 mm 2 mps 753 mmHg 97%
    06:00 +18°C° 0 mm 2 mps 754 mmHg 92%
    07:00 +19°C° 0 mm 2 mps 754 mmHg 87%
    08:00 +21°C° 0 mm 3 mps 755 mmHg 82%
    09:00 +21°C° 0.2 mm 3 mps 756 mmHg 81%
    10:00 +21°C° 0.2 mm 4 mps 756 mmHg 79%
    11:00 +22°C° 0.2 mm 5 mps 756 mmHg 78%
    12:00 +23°C° 0.1 mm 5 mps 756 mmHg 71%
    13:00 +25°C° 0.1 mm 5 mps 756 mmHg 64%
    14:00 +26°C° 0.1 mm 5 mps 756 mmHg 57%
    15:00 +25°C° 0 mm 5 mps 756 mmHg 57%
    16:00 +25°C° 0 mm 5 mps 756 mmHg 57%
    17:00 +25°C° 0 mm 5 mps 756 mmHg 57%
    18:00 +23°C° 0 mm 4 mps 756 mmHg 63%
    19:00 +21°C° 0 mm 4 mps 757 mmHg 68%
    20:00 +19°C° 0 mm 4 mps 758 mmHg 74%
    21:00 +18°C° 0 mm 3 mps 758 mmHg 75%
    22:00 +17°C° 0 mm 3 mps 758 mmHg 77%
    23:00 +17°C° 0 mm 3 mps 759 mmHg 78%
    Show more